Weather History for Sydney, NW

Change the Weather History Date:

Wednesday, April 16, 2014

  Actual Average Record
Temperature  
Mean Temperature 64 °F -  
Max Temperature 69 °F 70 °F 78 °F (2004)
Min Temperature 58 °F 54 °F 51 °F (2006)
Degree Days  
Heating Degree Days 2    
Growing Degree Days 14 (Base 50)    
Moisture  
Dew Point 55 °F    
Average Humidity 70    
Maximum Humidity 88    
Minimum Humidity 56    
Precipitation  
Precipitation 0.01 in 0.14 in - ()
Sea Level Pressure  
Sea Level Pressure 30.07 in    
Wind  
Wind Speed 15 mph ()    
Max Wind Speed 22 mph    
Max Gust Speed 22 mph    
Visibility 7.1 miles    
Events Rain    
Averages and records for this station are not official NWS values.
T = Trace of Precipitation, MM = Missing Value Source: Averaged Metar Reports

Daily Weather History Graph

Daily Weather History Graph

Search for Another Location

Airport:

Trip Planner

Search our weather history database for the weather conditions in past years. The results will help you decide how hot, cold, wet, or windy it might be!

Date:

Astronomy

Apr. 16, 2014 Rise Set
Actual Time 6:18 AM AEST 5:31 PM AEST
Civil Twilight 5:53 AM AEST 5:56 PM AEST
Nautical Twilight 5:23 AM AEST 6:25 PM AEST
Astronomical Twilight 4:54 AM AEST 6:54 PM AEST
Moon 6:07 PM AEST (4/16) 6:54 AM AEST (4/16)
Length of Visible Light 12h 03m
Length of Day
11h 13m
Full, 99% of the Moon is Illuminated
Apr 16
Full
Apr 22
Last Quarter
Apr 29
New
May 7
First Quarter
May 15
Full

Hourly Weather History & Observations

Time (AEST) Temp. Dew Point Humidity Pressure Visibility Wind Dir Wind Speed Gust Speed Precip Events Conditions
12:00 AM 61 °F 58 °F 86% 30.11 in 9 mi SW 13.8 mph - - Rain Light Drizzle
12:00 AM 60.8 °F 57.2 °F 88% 30.09 in 6.2 mi SW 13.8 mph - N/A   Light Drizzle
12:30 AM 64.4 °F 57.2 °F 77% 30.09 in 6.2 mi SSW 19.6 mph - N/A   Mostly Cloudy
1:00 AM 63 °F 57 °F 76% 30.10 in - SSW 16.1 mph - -  
1:00 AM 62.6 °F 57.2 °F 82% 30.09 in 6.2 mi SSW 16.1 mph - N/A   Scattered Clouds
1:30 AM 62.6 °F 57.2 °F 82% 30.06 in 6.2 mi SW 13.8 mph - N/A   Scattered Clouds
2:00 AM 63 °F 56 °F 72% 30.08 in - SSW 18.4 mph - -  
2:00 AM 62.6 °F 55.4 °F 77% 30.06 in 6.2 mi SSW 18.4 mph - N/A   Scattered Clouds
2:30 AM 62.6 °F 55.4 °F 77% 30.06 in 6.2 mi SW 16.1 mph - N/A   Scattered Clouds
3:00 AM 62 °F 55 °F 71% 30.07 in 9 mi SW 18.4 mph - -   Partly Cloudy
3:00 AM 62.6 °F 55.4 °F 77% 30.06 in 6.2 mi SW 18.4 mph - N/A   Scattered Clouds
3:30 AM 62.6 °F 55.4 °F 77% 30.06 in 6.2 mi SW 16.1 mph - N/A   Scattered Clouds
4:00 AM 61 °F 54 °F 70% 30.07 in - SW 12.7 mph - -  
4:00 AM 60.8 °F 53.6 °F 77% 30.06 in 6.2 mi SW 12.7 mph - N/A   Mostly Cloudy
4:30 AM 60.8 °F 53.6 °F 77% 30.06 in 6.2 mi SW 15.0 mph - N/A   Mostly Cloudy
5:00 AM 59 °F 54 °F 79% 30.08 in - SW 16.1 mph - -  
5:00 AM 59.0 °F 53.6 °F 82% 30.06 in 6.2 mi SW 16.1 mph - N/A   Mostly Cloudy
5:30 AM 59.0 °F 53.6 °F 82% 30.06 in 6.2 mi SSW 17.3 mph - N/A   Scattered Clouds
6:00 AM 59 °F 54 °F 77% 30.08 in 12 mi WSW 9.2 mph - -   Partly Cloudy
6:00 AM 59.0 °F 53.6 °F 82% 30.06 in 6.2 mi WSW 9.2 mph - N/A   Scattered Clouds
6:30 AM 59.0 °F 53.6 °F 82% 30.06 in 6.2 mi West 10.4 mph - N/A   Scattered Clouds
7:00 AM 60 °F 53 °F 70% 30.10 in - West 6.9 mph - -  
7:00 AM 59.0 °F 53.6 °F 82% 30.09 in 6.2 mi West 6.9 mph - N/A   Scattered Clouds
7:30 AM 60.8 °F 53.6 °F 77% 30.09 in 6.2 mi SW 15.0 mph - N/A   Mostly Cloudy
8:00 AM 63 °F 54 °F 65% 30.11 in - SSW 10.4 mph - -  
8:00 AM 62.6 °F 53.6 °F 72% 30.09 in 6.2 mi SSW 10.4 mph - N/A   Mostly Cloudy
8:30 AM 62.6 °F 53.6 °F 72% 30.09 in 6.2 mi West 9.2 mph - N/A   Scattered Clouds
9:00 AM 65 °F 55 °F 61% 30.12 in 12 mi SSW 15.0 mph - -   Haze
9:00 AM 64.4 °F 55.4 °F 73% 30.09 in 6.2 mi SSW 15.0 mph - N/A   Scattered Clouds
9:30 AM 66.2 °F 55.4 °F 68% 30.09 in 6.2 mi SSW 16.1 mph - N/A   Scattered Clouds
10:00 AM 66 °F 56 °F 63% 30.11 in - SSW 20.7 mph - -  
10:00 AM 66.2 °F 57.2 °F 73% 30.09 in 6.2 mi SSW 20.7 mph - N/A   Mostly Cloudy
10:30 AM 66.2 °F 57.2 °F 73% 30.09 in 6.2 mi SSW 19.6 mph - N/A   Mostly Cloudy
11:00 AM 67 °F 56 °F 59% 30.10 in - SSW 20.7 mph - -  
11:00 AM 68.0 °F 55.4 °F 64% 30.09 in 6.2 mi SSW 20.7 mph - N/A   Scattered Clouds
11:30 AM 68.0 °F 57.2 °F 68% 30.09 in 6.2 mi SSW 19.6 mph - N/A   Scattered Clouds
12:00 PM 68 °F 58 °F 61% 30.09 in 12 mi SSW 19.6 mph - -   Mostly Cloudy
12:00 PM 68.0 °F 57.2 °F 68% 30.06 in 6.2 mi SSW 19.6 mph - N/A   Scattered Clouds
12:30 PM 68.0 °F 55.4 °F 64% 30.06 in 6.2 mi SSW 18.4 mph - N/A   Scattered Clouds
1:00 PM 68 °F 56 °F 56% 30.06 in - SSW 15.0 mph - -  
1:00 PM 68.0 °F 55.4 °F 64% 30.04 in 6.2 mi SSW 15.0 mph - N/A   Scattered Clouds
1:30 PM 68.0 °F 55.4 °F 64% 30.04 in 6.2 mi South 18.4 mph - N/A   Partly Cloudy
2:00 PM 69 °F 58 °F 59% 30.05 in - South 20.7 mph - -  
2:00 PM 69.8 °F 57.2 °F 64% 30.04 in 6.2 mi South 20.7 mph - N/A   Partly Cloudy
2:30 PM 69.8 °F 55.4 °F 60% 30.04 in 6.2 mi South 20.7 mph - N/A   Scattered Clouds
3:00 PM 69 °F 58 °F 58% 30.05 in 16 mi South 21.9 mph - -   Partly Cloudy
3:00 PM 68.0 °F 57.2 °F 68% 30.04 in 6.2 mi South 21.9 mph - N/A   Partly Cloudy
3:30 PM 68.0 °F 59.0 °F 73% 30.04 in 6.2 mi South 21.9 mph - N/A   Partly Cloudy
4:00 PM 68 °F 56 °F 57% 30.04 in - South 19.6 mph - -  
4:00 PM 68.0 °F 55.4 °F 64% 30.04 in 6.2 mi South 19.6 mph - N/A   Partly Cloudy
4:30 PM 68.0 °F 55.4 °F 64% 30.04 in 6.2 mi South 19.6 mph - N/A   Partly Cloudy
5:00 PM 68 °F 56 °F 56% 30.04 in - South 18.4 mph - -  
5:00 PM 68.0 °F 55.4 °F 64% 30.04 in 6.2 mi South 18.4 mph - N/A   Partly Cloudy
5:30 PM 68.0 °F 57.2 °F 68% 30.04 in 6.2 mi South 17.3 mph - N/A   Partly Cloudy
6:00 PM 67 °F 57 °F 63% 30.05 in 16 mi South 17.3 mph - -   Partly Cloudy
6:00 PM 68.0 °F 57.2 °F 68% 30.04 in 6.2 mi South 17.3 mph - N/A   Partly Cloudy
6:30 PM 68.0 °F 57.2 °F 68% 30.04 in 6.2 mi South 18.4 mph - N/A   Partly Cloudy
7:00 PM 67 °F 57 °F 62% 30.06 in - SSW 17.3 mph - -  
7:00 PM 68.0 °F 57.2 °F 68% 30.06 in 6.2 mi SSW 17.3 mph - N/A   Partly Cloudy
7:30 PM 68.0 °F 55.4 °F 64% 30.06 in 6.2 mi SSW 16.1 mph - N/A   Partly Cloudy
8:00 PM 66 °F 54 °F 56% 30.08 in - WSW 13.8 mph - -  
8:00 PM 66.2 °F 53.6 °F 64% 30.06 in 6.2 mi WSW 13.8 mph - N/A   Partly Cloudy
8:30 PM 64.4 °F 55.4 °F 73% 30.06 in 6.2 mi WSW 11.5 mph - N/A   Partly Cloudy
9:00 PM 64 °F 54 °F 63% 30.09 in 16 mi West 10.4 mph - -   Partly Cloudy
9:00 PM 64.4 °F 53.6 °F 68% 30.06 in 6.2 mi West 10.4 mph - N/A   Partly Cloudy
9:30 PM 64.4 °F 53.6 °F 68% 30.09 in 6.2 mi WSW 10.4 mph 21.9 mph N/A   Partly Cloudy
10:00 PM 63 °F 54 °F 65% 30.09 in - West 10.4 mph - -  
10:00 PM 62.6 °F 53.6 °F 72% 30.09 in 6.2 mi West 10.4 mph - N/A   Partly Cloudy
10:30 PM 60.8 °F 53.6 °F 77% 30.06 in 6.2 mi West 8.1 mph - N/A   Partly Cloudy
11:00 PM 62 °F 53 °F 63% 30.08 in - West 9.2 mph - -  
11:00 PM 62.6 °F 53.6 °F 72% 30.06 in 6.2 mi West 9.2 mph - N/A   Partly Cloudy
11:30 PM 59.0 °F 51.8 °F 77% 30.06 in 6.2 mi WNW 8.1 mph - N/A   Partly Cloudy